{"data":{"norad_id":55998,"epoch":"2026-09-20T16:25:35.450112Z","epoch_age_seconds":90260,"freshness":"FRESH","line1":"1 55998U 23042N   26263.68443808  .00000090  00000+0  12782-4 0  9999","line2":"2 55998  43.0042  38.1820 0001338 262.1608  97.9091 15.27578505192690","mean_motion":15.27578505,"eccentricity":0.0001338,"inclination_deg":43.0042,"raan_deg":38.182,"arg_perigee_deg":262.1608,"mean_anomaly_deg":97.9091,"bstar":1.2782e-5,"rev_number":19269,"period_min":94.266840969983,"perigee_km":482.13554531251,"apogee_km":483.97159990974,"semimajor_km":6861.1905726111,"source":"CELESTRAK","updated_at":"2026-09-21T09:00:33.351267Z"}}